Time,TemperatureF,DewpointF,PressureIn,WindDirection,WindDirectionDegrees,WindSpeedMPH,WindSpeedGustMPH,Humidity,HourlyPrecipIn,Conditions,Clouds,dailyrainin,SoftwareType,DateUTC
2013-01-11 00:03:00,43.6,29.3,29.86,East,90,0.4,4.0,57,0.00,,,0.00,WUHU216HW,2013-01-11 07:03:00,
2013-01-11 00:08:00,43.2,29.3,29.86,ENE,68,0.7,1.6,58,0.00,,,0.00,WUHU216HW,2013-01-11 07:08:00,
2013-01-11 00:13:00,42.8,29.0,29.86,SSE,158,3.4,3.4,58,0.00,,,0.00,WUHU216HW,2013-01-11 07:13:00,
2013-01-11 00:18:00,42.5,28.7,29.86,ESE,113,3.6,3.8,58,0.00,,,0.00,WUHU216HW,2013-01-11 07:18:00,
2013-01-11 00:23:00,42.5,29.2,29.85,SE,135,2.2,3.8,59,0.00,,,0.00,WUHU216HW,2013-01-11 07:23:00,
2013-01-11 00:28:00,42.5,29.2,29.85,SSE,158,2.5,3.8,59,0.00,,,0.00,WUHU216HW,2013-01-11 07:28:00,
2013-01-11 00:33:00,42.3,29.0,29.84,SSE,158,1.1,3.4,59,0.00,,,0.00,WUHU216HW,2013-01-11 07:33:00,
2013-01-11 00:38:00,42.1,28.8,29.84,NE,45,1.1,3.1,59,0.00,,,0.00,WUHU216HW,2013-01-11 07:38:00,
2013-01-11 00:43:00,42.1,28.8,29.85,SE,135,0.7,2.7,59,0.00,,,0.00,WUHU216HW,2013-01-11 07:43:00,
2013-01-11 00:48:00,41.9,28.6,29.84,South,180,0.9,4.0,59,0.00,,,0.00,WUHU216HW,2013-01-11 07:48:00,
2013-01-11 00:53:00,41.9,28.6,29.84,SSE,158,3.1,4.0,59,0.00,,,0.00,WUHU216HW,2013-01-11 07:53:00,
2013-01-11 00:58:00,42.3,29.0,29.84,SSE,158,4.7,6.0,59,0.00,,,0.00,WUHU216HW,2013-01-11 07:58:00,
2013-01-11 01:03:00,43.0,29.2,29.84,South,180,5.8,6.9,58,0.00,,,0.00,WUHU216HW,2013-01-11 08:03:00,
2013-01-11 01:09:00,43.6,28.8,29.84,SSE,158,6.3,6.9,56,0.00,,,0.00,WUHU216HW,2013-01-11 08:09:00,
2013-01-11 01:14:00,44.3,29.1,29.83,SSE,158,1.8,6.9,55,0.00,,,0.00,WUHU216HW,2013-01-11 08:14:00,
2013-01-11 01:19:00,44.8,29.2,29.84,South,180,4.0,8.5,54,0.00,,,0.00,WUHU216HW,2013-01-11 08:19:00,
2013-01-11 01:24:00,45.0,29.4,29.83,SSW,203,5.4,8.5,54,0.00,,,0.00,WUHU216HW,2013-01-11 08:24:00,
2013-01-11 01:29:00,45.2,29.0,29.83,South,180,5.6,8.1,53,0.00,,,0.00,WUHU216HW,2013-01-11 08:29:00,
2013-01-11 01:34:00,45.4,28.7,29.84,South,180,5.4,8.1,52,0.00,,,0.00,WUHU216HW,2013-01-11 08:34:00,
2013-01-11 01:39:00,45.4,28.7,29.84,South,180,3.8,6.3,52,0.00,,,0.00,WUHU216HW,2013-01-11 08:39:00,
2013-01-11 01:44:00,45.4,28.3,29.84,South,180,5.4,6.3,51,0.00,,,0.00,WUHU216HW,2013-01-11 08:44:00,
2013-01-11 01:49:00,45.5,28.4,29.84,SSW,203,4.7,6.9,51,0.00,,,0.00,WUHU216HW,2013-01-11 08:49:00,
2013-01-11 01:54:00,45.5,28.0,29.84,South,180,4.9,6.9,50,0.00,,,0.00,WUHU216HW,2013-01-11 08:54:00,
2013-01-11 01:59:00,45.7,28.2,29.83,South,180,6.3,6.3,50,0.00,,,0.00,WUHU216HW,2013-01-11 08:59:00,
2013-01-11 02:04:00,45.7,28.2,29.83,SSE,158,4.5,6.3,50,0.00,,,0.00,WUHU216HW,2013-01-11 09:04:00,
2013-01-11 02:09:00,45.7,28.2,29.84,SSE,158,4.5,7.4,50,0.00,,,0.00,WUHU216HW,2013-01-11 09:09:00,
2013-01-11 02:14:00,45.9,28.4,29.83,SSE,158,4.3,8.1,50,0.00,,,0.00,WUHU216HW,2013-01-11 09:14:00,
2013-01-11 02:19:00,45.9,28.4,29.84,SSE,158,4.3,8.1,50,0.00,,,0.00,WUHU216HW,2013-01-11 09:19:00,
2013-01-11 02:24:00,45.7,28.2,29.83,SSW,203,4.7,6.0,50,0.00,,,0.00,WUHU216HW,2013-01-11 09:24:00,
2013-01-11 02:29:00,45.7,28.2,29.83,SSE,158,4.7,6.7,50,0.00,,,0.00,WUHU216HW,2013-01-11 09:29:00,
2013-01-11 02:34:00,45.5,28.0,29.83,SSE,158,5.8,6.7,50,0.00,,,0.00,WUHU216HW,2013-01-11 09:34:00,
2013-01-11 02:39:00,45.5,28.0,29.83,SSE,158,4.0,6.5,50,0.00,,,0.00,WUHU216HW,2013-01-11 09:39:00,
2013-01-11 02:44:00,45.4,28.3,29.83,SSW,203,4.5,5.1,51,0.00,,,0.00,WUHU216HW,2013-01-11 09:44:00,
2013-01-11 02:49:00,45.4,28.3,29.83,SSE,158,2.5,5.8,51,0.00,,,0.00,WUHU216HW,2013-01-11 09:49:00,
2013-01-11 02:54:00,45.2,28.1,29.82,SSW,203,6.3,6.3,51,0.00,,,0.00,WUHU216HW,2013-01-11 09:54:00,
2013-01-11 02:59:00,45.0,28.0,29.82,SSE,158,4.0,6.7,51,0.00,,,0.00,WUHU216HW,2013-01-11 09:59:00,
2013-01-11 03:04:00,45.0,28.5,29.82,SSE,158,7.2,7.6,52,0.00,,,0.00,WUHU216HW,2013-01-11 10:04:00,
2013-01-11 03:09:00,45.0,28.5,29.82,South,180,4.0,7.6,52,0.00,,,0.00,WUHU216HW,2013-01-11 10:09:00,
2013-01-11 03:14:00,44.8,28.3,29.82,SSE,158,4.3,8.5,52,0.00,,,0.00,WUHU216HW,2013-01-11 10:14:00,
2013-01-11 03:19:00,44.8,28.3,29.82,SE,135,3.4,8.5,52,0.00,,,0.00,WUHU216HW,2013-01-11 10:19:00,
2013-01-11 03:24:00,44.6,28.1,29.82,SW,225,4.7,7.6,52,0.00,,,0.00,WUHU216HW,2013-01-11 10:24:00,
2013-01-11 03:29:00,44.6,28.1,29.82,SSE,158,5.6,7.6,52,0.00,,,0.00,WUHU216HW,2013-01-11 10:29:00,
2013-01-11 03:34:00,44.6,28.5,29.81,South,180,4.5,9.2,53,0.00,,,0.00,WUHU216HW,2013-01-11 10:34:00,
2013-01-11 03:39:00,44.6,28.5,29.81,SSW,203,5.8,9.2,53,0.00,,,0.00,WUHU216HW,2013-01-11 10:39:00,
2013-01-11 03:44:00,44.6,28.5,29.81,SSW,203,4.7,8.1,53,0.00,,,0.00,WUHU216HW,2013-01-11 10:44:00,
2013-01-11 03:49:00,44.6,28.5,29.80,South,180,5.1,8.1,53,0.00,,,0.00,WUHU216HW,2013-01-11 10:49:00,
2013-01-11 03:54:00,44.5,28.4,29.80,SE,135,3.4,8.1,53,0.00,,,0.00,WUHU216HW,2013-01-11 10:54:00,
2013-01-11 03:59:00,44.1,28.0,29.80,SSE,158,5.8,8.1,53,0.00,,,0.00,WUHU216HW,2013-01-11 10:59:00,
2013-01-11 04:04:00,43.7,27.7,29.80,SSE,158,4.9,8.7,53,0.00,,,0.00,WUHU216HW,2013-01-11 11:04:00,
2013-01-11 04:09:00,43.6,27.6,29.79,South,180,4.7,8.7,53,0.00,,,0.00,WUHU216HW,2013-01-11 11:09:00,
2013-01-11 04:14:00,43.4,27.8,29.79,WSW,248,6.3,6.9,54,0.00,,,0.00,WUHU216HW,2013-01-11 11:14:00,
2013-01-11 04:19:00,43.4,27.8,29.79,South,180,4.9,7.6,54,0.00,,,0.00,WUHU216HW,2013-01-11 11:19:00,
2013-01-11 04:24:00,43.4,27.8,29.80,SSW,203,8.3,8.3,54,0.00,,,0.00,WUHU216HW,2013-01-11 11:24:00,
2013-01-11 04:29:00,43.4,28.3,29.79,SSE,158,4.7,8.3,55,0.00,,,0.00,WUHU216HW,2013-01-11 11:29:00,
2013-01-11 04:34:00,43.4,28.3,29.80,South,180,4.0,8.5,55,0.00,,,0.00,WUHU216HW,2013-01-11 11:34:00,
2013-01-11 04:39:00,43.2,28.1,29.80,South,180,5.8,8.5,55,0.00,,,0.00,WUHU216HW,2013-01-11 11:39:00,
2013-01-11 04:44:00,43.4,28.7,29.79,South,180,6.0,9.2,56,0.00,,,0.00,WUHU216HW,2013-01-11 11:44:00,
2013-01-11 04:49:00,43.4,28.7,29.79,SSW,203,4.3,9.2,56,0.00,,,0.00,WUHU216HW,2013-01-11 11:49:00,
2013-01-11 04:54:00,43.6,28.8,29.79,SSW,203,6.5,9.6,56,0.00,,,0.00,WUHU216HW,2013-01-11 11:54:00,
2013-01-11 04:59:00,43.7,29.0,29.80,SSW,203,6.5,9.6,56,0.00,,,0.00,WUHU216HW,2013-01-11 11:59:00,
2013-01-11 05:04:00,44.1,28.9,29.80,SSE,158,5.6,9.8,55,0.00,,,0.00,WUHU216HW,2013-01-11 12:04:00,
2013-01-11 05:09:00,44.6,29.0,29.80,South,180,3.8,9.8,54,0.00,,,0.00,WUHU216HW,2013-01-11 12:09:00,
2013-01-11 05:14:00,45.0,29.8,29.80,South,180,6.9,8.5,55,0.00,,,0.00,WUHU216HW,2013-01-11 12:14:00,
2013-01-11 05:19:00,45.2,29.4,29.80,SSW,203,4.9,7.6,54,0.00,,,0.00,WUHU216HW,2013-01-11 12:19:00,
2013-01-11 05:24:00,45.5,29.3,29.79,SSE,158,5.1,7.8,53,0.00,,,0.00,WUHU216HW,2013-01-11 12:24:00,
2013-01-11 05:29:00,45.7,29.5,29.79,SSE,158,6.3,9.8,53,0.00,,,0.00,WUHU216HW,2013-01-11 12:29:00,
2013-01-11 05:34:00,45.9,29.3,29.80,SSW,203,5.6,9.8,52,0.00,,,0.00,WUHU216HW,2013-01-11 12:34:00,
2013-01-11 05:39:00,45.9,29.3,29.80,SSE,158,3.8,9.2,52,0.00,,,0.00,WUHU216HW,2013-01-11 12:39:00,
2013-01-11 05:44:00,45.9,29.3,29.80,SW,225,7.6,9.4,52,0.00,,,0.00,WUHU216HW,2013-01-11 12:44:00,
2013-01-11 05:49:00,46.1,28.9,29.80,SSE,158,6.3,9.4,51,0.00,,,0.00,WUHU216HW,2013-01-11 12:49:00,
2013-01-11 05:54:00,46.3,29.1,29.80,South,180,8.5,11.4,51,0.00,,,0.00,WUHU216HW,2013-01-11 12:54:00,
2013-01-11 05:59:00,46.4,28.8,29.80,South,180,8.3,11.4,50,0.00,,,0.00,WUHU216HW,2013-01-11 12:59:00,
2013-01-11 06:04:00,47.0,28.7,29.80,SSW,203,8.5,11.9,49,0.00,,,0.00,WUHU216HW,2013-01-11 13:04:00,
2013-01-11 06:09:00,47.3,28.5,29.80,SSE,158,9.8,11.9,48,0.00,,,0.00,WUHU216HW,2013-01-11 13:09:00,
2013-01-11 06:14:00,47.5,28.2,29.81,SSE,158,4.5,9.8,47,0.00,,,0.00,WUHU216HW,2013-01-11 13:14:00,
2013-01-11 06:19:00,47.5,28.2,29.81,South,180,4.0,9.8,47,0.00,,,0.00,WUHU216HW,2013-01-11 13:19:00,
2013-01-11 06:24:00,47.5,28.2,29.81,SW,225,6.0,8.3,47,0.00,,,0.00,WUHU216HW,2013-01-11 13:24:00,
2013-01-11 06:29:00,47.3,28.0,29.81,SSE,158,2.7,7.6,47,0.00,,,0.00,WUHU216HW,2013-01-11 13:29:00,
2013-01-11 06:34:00,47.3,28.0,29.81,South,180,4.0,7.6,47,0.00,,,0.00,WUHU216HW,2013-01-11 13:34:00,
2013-01-11 06:39:00,47.2,27.8,29.82,SE,135,3.1,7.2,47,0.00,,,0.00,WUHU216HW,2013-01-11 13:39:00,
2013-01-11 06:44:00,46.8,27.6,29.82,South,180,2.7,6.3,47,0.00,,,0.00,WUHU216HW,2013-01-11 13:44:00,
2013-01-11 06:49:00,46.6,27.4,29.82,South,180,4.7,6.9,47,0.00,,,0.00,WUHU216HW,2013-01-11 13:49:00,
2013-01-11 06:54:00,46.4,27.2,29.82,SE,135,2.7,6.9,47,0.00,,,0.00,WUHU216HW,2013-01-11 13:54:00,
2013-01-11 06:59:00,46.3,27.0,29.82,SE,135,1.8,5.1,47,0.00,,,0.00,WUHU216HW,2013-01-11 13:59:00,
2013-01-11 07:04:00,46.1,26.8,29.83,SSE,158,2.5,4.9,47,0.00,,,0.00,WUHU216HW,2013-01-11 14:04:00,
2013-01-11 07:09:00,45.9,26.7,29.82,ESE,113,2.7,8.3,47,0.00,,,0.00,WUHU216HW,2013-01-11 14:09:00,
2013-01-11 07:14:00,45.7,26.6,29.83,SE,135,3.4,8.3,47,0.00,,,0.00,WUHU216HW,2013-01-11 14:14:00,
2013-01-11 07:19:00,45.7,26.6,29.83,SE,135,4.0,4.7,47,0.00,,,0.00,WUHU216HW,2013-01-11 14:19:00,
2013-01-11 07:24:00,45.7,26.6,29.83,SSE,158,3.8,4.0,47,0.00,,,0.00,WUHU216HW,2013-01-11 14:24:00,
2013-01-11 07:29:00,45.7,26.6,29.83,SSW,203,3.8,5.4,47,0.00,,,0.00,WUHU216HW,2013-01-11 14:29:00,
2013-01-11 07:34:00,46.4,26.6,29.84,SSW,203,4.0,10.1,46,0.00,,,0.00,WUHU216HW,2013-01-11 14:34:00,
2013-01-11 07:39:00,47.2,26.7,29.84,SSE,158,3.6,10.1,45,0.00,,,0.00,WUHU216HW,2013-01-11 14:39:00,
2013-01-11 07:44:00,47.3,26.4,29.84,South,180,7.2,7.2,44,0.00,,,0.00,WUHU216HW,2013-01-11 14:44:00,
2013-01-11 07:49:00,47.7,26.2,29.84,South,180,5.4,7.2,43,0.00,,,0.00,WUHU216HW,2013-01-11 14:49:00,
2013-01-11 07:54:00,47.9,26.3,29.84,South,180,2.0,7.2,43,0.00,,,0.00,WUHU216HW,2013-01-11 14:54:00,
2013-01-11 07:59:00,48.2,26.6,29.84,SSW,203,2.9,7.8,43,0.00,,,0.00,WUHU216HW,2013-01-11 14:59:00,
2013-01-11 08:04:00,48.6,26.5,29.84,SSW,203,5.1,9.2,42,0.00,,,0.00,WUHU216HW,2013-01-11 15:04:00,
2013-01-11 08:09:00,48.8,26.7,29.84,SSW,203,4.7,9.2,42,0.00,,,0.00,WUHU216HW,2013-01-11 15:09:00,
2013-01-11 08:14:00,49.0,26.7,29.85,SSW,203,5.4,8.5,42,0.00,,,0.00,WUHU216HW,2013-01-11 15:14:00,
2013-01-11 08:19:00,49.1,26.4,29.85,SSW,203,8.7,8.7,41,0.00,,,0.00,WUHU216HW,2013-01-11 15:19:00,
2013-01-11 08:24:00,49.3,26.0,29.86,West,270,4.0,8.7,40,0.00,,,0.00,WUHU216HW,2013-01-11 15:24:00,
2013-01-11 08:29:00,49.9,25.1,29.86,NW,315,6.3,9.6,38,0.00,,,0.00,WUHU216HW,2013-01-11 15:29:00,
2013-01-11 08:34:00,49.0,25.7,29.87,WNW,293,5.4,9.8,40,0.00,,,0.00,WUHU216HW,2013-01-11 15:34:00,
2013-01-11 08:39:00,47.9,26.3,29.87,WNW,293,3.4,9.8,43,0.00,,,0.00,WUHU216HW,2013-01-11 15:39:00,
2013-01-11 08:44:00,47.2,26.7,29.87,West,270,5.8,8.7,45,0.00,,,0.00,WUHU216HW,2013-01-11 15:44:00,
2013-01-11 08:49:00,46.8,27.0,29.87,WNW,293,4.9,7.6,46,0.00,,,0.00,WUHU216HW,2013-01-11 15:49:00,
2013-01-11 08:54:00,46.6,27.9,29.88,NW,315,4.5,8.1,48,0.00,,,0.00,WUHU216HW,2013-01-11 15:54:00,
2013-01-11 08:59:00,46.1,27.9,29.88,NW,315,5.1,13.9,49,0.00,,,0.00,WUHU216HW,2013-01-11 15:59:00,
2013-01-11 09:04:00,45.7,28.2,29.88,WNW,293,9.8,13.9,50,0.00,,,0.00,WUHU216HW,2013-01-11 16:04:00,
2013-01-11 09:09:00,45.7,28.6,29.88,West,270,4.0,12.8,51,0.00,,,0.00,WUHU216HW,2013-01-11 16:09:00,
2013-01-11 09:14:00,45.7,28.6,29.88,WSW,248,5.4,12.8,51,0.00,,,0.00,WUHU216HW,2013-01-11 16:14:00,
2013-01-11 09:19:00,45.7,28.6,29.88,West,270,7.2,12.5,51,0.00,,,0.00,WUHU216HW,2013-01-11 16:19:00,
2013-01-11 09:24:00,45.9,28.8,29.89,West,270,9.6,12.5,51,0.00,,,0.00,WUHU216HW,2013-01-11 16:24:00,
2013-01-11 09:29:00,46.1,28.9,29.89,WNW,293,7.4,9.8,51,0.00,,,0.00,WUHU216HW,2013-01-11 16:29:00,
2013-01-11 09:34:00,45.9,28.8,29.89,WNW,293,7.2,9.6,51,0.00,,,0.00,WUHU216HW,2013-01-11 16:34:00,
2013-01-11 09:39:00,45.9,28.4,29.88,NW,315,8.7,10.5,50,0.00,,,0.00,WUHU216HW,2013-01-11 16:39:00,
2013-01-11 09:44:00,45.7,28.2,29.89,WNW,293,7.2,11.0,50,0.00,,,0.00,WUHU216HW,2013-01-11 16:44:00,
2013-01-11 09:49:00,46.1,28.4,29.89,NW,315,6.7,13.0,50,0.00,,,0.00,WUHU216HW,2013-01-11 16:49:00,
2013-01-11 09:54:00,46.6,29.0,29.89,NW,315,8.9,13.0,50,0.00,,,0.00,WUHU216HW,2013-01-11 16:54:00,
2013-01-11 09:59:00,47.0,28.7,29.89,WNW,293,6.7,11.9,49,0.00,,,0.00,WUHU216HW,2013-01-11 16:59:00,
2013-01-11 10:04:00,47.7,28.9,29.89,WNW,293,6.9,10.3,48,0.00,,,0.00,WUHU216HW,2013-01-11 17:04:00,
2013-01-11 10:09:00,48.1,28.6,29.89,West,270,9.2,10.5,47,0.00,,,0.00,WUHU216HW,2013-01-11 17:09:00,
2013-01-11 10:14:00,48.6,28.6,29.89,WNW,293,7.4,10.5,46,0.00,,,0.00,WUHU216HW,2013-01-11 17:14:00,
2013-01-11 10:19:00,49.0,28.5,29.89,NW,315,5.8,9.4,45,0.00,,,0.00,WUHU216HW,2013-01-11 17:19:00,
2013-01-11 10:24:00,49.0,27.3,29.89,WNW,293,5.4,11.4,43,0.00,,,0.00,WUHU216HW,2013-01-11 17:24:00,
2013-01-11 10:29:00,49.1,27.5,29.89,WNW,293,6.9,13.0,43,0.00,,,0.00,WUHU216HW,2013-01-11 17:29:00,
2013-01-11 10:34:00,49.1,27.5,29.89,WNW,293,5.8,13.0,43,0.00,,,0.00,WUHU216HW,2013-01-11 17:34:00,
2013-01-11 10:39:00,48.8,26.7,29.89,NNW,338,6.3,12.1,42,0.00,,,0.00,WUHU216HW,2013-01-11 17:39:00,
2013-01-11 10:44:00,48.8,26.7,29.89,WNW,293,4.0,12.1,42,0.00,,,0.00,WUHU216HW,2013-01-11 17:44:00,
2013-01-11 10:49:00,49.0,26.2,29.89,NW,315,6.9,12.3,41,0.00,,,0.00,WUHU216HW,2013-01-11 17:49:00,
2013-01-11 10:54:00,48.8,25.5,29.89,WNW,293,8.3,13.2,40,0.00,,,0.00,WUHU216HW,2013-01-11 17:54:00,
2013-01-11 10:59:00,49.3,26.0,29.88,NW,315,7.6,13.2,40,0.00,,,0.00,WUHU216HW,2013-01-11 17:59:00,
2013-01-11 11:04:00,49.0,25.0,29.88,NW,315,5.8,11.0,39,0.00,,,0.00,WUHU216HW,2013-01-11 18:04:00,
2013-01-11 11:09:00,48.8,24.9,29.88,NW,315,9.4,11.0,39,0.00,,,0.00,WUHU216HW,2013-01-11 18:09:00,
2013-01-11 11:14:00,49.1,25.1,29.87,WNW,293,6.0,12.1,39,0.00,,,0.00,WUHU216HW,2013-01-11 18:14:00,
2013-01-11 11:19:00,49.7,24.9,29.87,NW,315,5.6,12.1,38,0.00,,,0.00,WUHU216HW,2013-01-11 18:19:00,
2013-01-11 11:24:00,50.0,25.3,29.87,NNW,338,6.9,10.7,38,0.00,,,0.00,WUHU216HW,2013-01-11 18:24:00,
2013-01-11 11:29:00,50.2,25.5,29.87,WNW,293,5.8,12.1,38,0.00,,,0.00,WUHU216HW,2013-01-11 18:29:00,
2013-01-11 11:34:00,50.2,24.8,29.86,NNW,338,8.1,12.1,37,0.00,,,0.00,WUHU216HW,2013-01-11 18:34:00,
2013-01-11 11:39:00,50.0,25.3,29.86,SW,225,5.1,10.3,38,0.00,,,0.00,WUHU216HW,2013-01-11 18:39:00,
2013-01-11 11:44:00,50.2,25.5,29.85,NNW,338,9.6,9.8,38,0.00,,,0.00,WUHU216HW,2013-01-11 18:44:00,
2013-01-11 11:49:00,50.2,24.8,29.85,WSW,248,9.8,12.1,37,0.00,,,0.00,WUHU216HW,2013-01-11 18:49:00,
2013-01-11 11:54:00,50.2,25.5,29.85,NW,315,6.9,13.4,38,0.00,,,0.00,WUHU216HW,2013-01-11 18:54:00,
2013-01-11 11:59:00,49.7,23.6,29.85,West,270,9.8,13.4,36,0.00,,,0.00,WUHU216HW,2013-01-11 18:59:00,
2013-01-11 12:04:00,49.3,23.3,29.85,North,0,6.3,10.7,36,0.00,,,0.00,WUHU216HW,2013-01-11 19:04:00,
2013-01-11 12:09:00,49.9,23.8,29.84,NW,315,6.9,10.7,36,0.00,,,0.00,WUHU216HW,2013-01-11 19:09:00,
2013-01-11 12:14:00,50.2,24.8,29.84,WSW,248,9.4,10.1,37,0.00,,,0.00,WUHU216HW,2013-01-11 19:14:00,
2013-01-11 12:19:00,50.4,24.9,29.84,WSW,248,12.1,16.8,37,0.00,,,0.00,WUHU216HW,2013-01-11 19:19:00,
2013-01-11 12:24:00,50.2,24.8,29.84,WNW,293,6.9,16.8,37,0.00,,,0.00,WUHU216HW,2013-01-11 19:24:00,
2013-01-11 12:29:00,50.6,25.1,29.83,West,270,12.1,16.8,37,0.00,,,0.00,WUHU216HW,2013-01-11 19:29:00,
2013-01-11 12:34:00,50.2,24.8,29.84,WSW,248,8.3,16.8,37,0.00,,,0.00,WUHU216HW,2013-01-11 19:34:00,
2013-01-11 12:39:00,50.4,24.9,29.83,West,270,14.1,17.0,37,0.00,,,0.00,WUHU216HW,2013-01-11 19:39:00,
2013-01-11 12:44:00,50.4,24.9,29.83,WNW,293,5.4,17.0,37,0.00,,,0.00,WUHU216HW,2013-01-11 19:44:00,
2013-01-11 12:49:00,50.2,24.0,29.83,WSW,248,11.6,21.3,36,0.00,,,0.00,WUHU216HW,2013-01-11 19:49:00,
2013-01-11 12:54:00,50.2,24.0,29.83,WNW,293,6.5,21.3,36,0.00,,,0.00,WUHU216HW,2013-01-11 19:54:00,
2013-01-11 12:59:00,50.8,24.6,29.82,North,0,10.7,16.8,36,0.00,,,0.00,WUHU216HW,2013-01-11 19:59:00,
2013-01-11 13:04:00,50.6,24.4,29.82,SW,225,9.4,17.9,36,0.00,,,0.00,WUHU216HW,2013-01-11 20:04:00,
2013-01-11 13:08:00,50.6,23.1,29.82,WNW,293,11.9,17.9,34,0.00,,,0.00,WUHU216HW,2013-01-11 20:08:00,
2013-01-11 13:13:00,50.8,23.2,29.81,WNW,293,19.5,20.1,34,0.00,,,0.00,WUHU216HW,2013-01-11 20:13:00,
2013-01-11 13:18:00,50.8,23.2,29.81,West,270,7.6,20.1,34,0.00,,,0.00,WUHU216HW,2013-01-11 20:18:00,
2013-01-11 13:23:00,50.8,23.2,29.81,WSW,248,14.1,15.4,34,0.00,,,0.00,WUHU216HW,2013-01-11 20:23:00,
2013-01-11 13:28:00,50.8,23.2,29.81,WNW,293,11.4,17.9,34,0.00,,,0.00,WUHU216HW,2013-01-11 20:28:00,
2013-01-11 13:33:00,50.8,22.5,29.81,WSW,248,13.6,17.9,33,0.00,,,0.00,WUHU216HW,2013-01-11 20:33:00,
2013-01-11 13:38:00,50.8,22.5,29.81,WSW,248,9.6,18.1,33,0.00,,,0.00,WUHU216HW,2013-01-11 20:38:00,
2013-01-11 13:43:00,50.9,22.7,29.81,West,270,12.8,19.2,33,0.00,,,0.00,WUHU216HW,2013-01-11 20:43:00,
2013-01-11 13:48:00,50.6,22.3,29.81,West,270,17.9,19.2,33,0.00,,,0.00,WUHU216HW,2013-01-11 20:48:00,
2013-01-11 13:53:00,50.6,22.3,29.82,WSW,248,9.6,19.0,33,0.00,,,0.00,WUHU216HW,2013-01-11 20:53:00,
2013-01-11 13:58:00,50.8,22.5,29.82,WSW,248,9.2,19.0,33,0.00,,,0.00,WUHU216HW,2013-01-11 20:58:00,
2013-01-11 14:03:00,51.1,22.1,29.82,West,270,8.5,15.9,32,0.00,,,0.00,WUHU216HW,2013-01-11 21:03:00,
2013-01-11 14:08:00,51.3,22.3,29.82,WSW,248,12.3,15.9,32,0.00,,,0.00,WUHU216HW,2013-01-11 21:08:00,
2013-01-11 14:13:00,51.1,22.1,29.82,WSW,248,5.6,14.5,32,0.00,,,0.00,WUHU216HW,2013-01-11 21:13:00,
2013-01-11 14:18:00,51.3,22.3,29.82,WNW,293,8.1,14.5,32,0.00,,,0.00,WUHU216HW,2013-01-11 21:18:00,
2013-01-11 14:23:00,51.5,22.5,29.82,West,270,14.5,14.5,32,0.00,,,0.00,WUHU216HW,2013-01-11 21:23:00,
2013-01-11 14:28:00,51.5,22.5,29.82,West,270,11.4,16.1,32,0.00,,,0.00,WUHU216HW,2013-01-11 21:28:00,
2013-01-11 14:33:00,51.7,22.0,29.82,West,270,6.3,16.1,31,0.00,,,0.00,WUHU216HW,2013-01-11 21:33:00,
2013-01-11 14:38:00,51.5,21.8,29.82,West,270,7.8,13.6,31,0.00,,,0.00,WUHU216HW,2013-01-11 21:38:00,
2013-01-11 14:43:00,51.3,21.6,29.82,WSW,248,9.6,15.2,31,0.00,,,0.00,WUHU216HW,2013-01-11 21:43:00,
2013-01-11 14:48:00,51.1,21.4,29.82,SSW,203,9.2,15.2,31,0.00,,,0.00,WUHU216HW,2013-01-11 21:48:00,
2013-01-11 14:53:00,51.1,21.4,29.82,West,270,8.5,13.6,31,0.00,,,0.00,WUHU216HW,2013-01-11 21:53:00,
2013-01-11 14:58:00,51.1,21.4,29.82,SW,225,7.2,12.5,31,0.00,,,0.00,WUHU216HW,2013-01-11 21:58:00,
2013-01-11 15:03:00,51.1,21.4,29.82,West,270,4.7,12.5,31,0.00,,,0.00,WUHU216HW,2013-01-11 22:03:00,
2013-01-11 15:08:00,50.9,21.3,29.83,West,270,4.5,11.6,31,0.00,,,0.00,WUHU216HW,2013-01-11 22:08:00,
2013-01-11 15:13:00,50.8,21.2,29.83,NW,315,10.3,10.3,31,0.00,,,0.00,WUHU216HW,2013-01-11 22:13:00,
2013-01-11 15:18:00,50.4,20.8,29.83,WNW,293,6.9,10.3,31,0.00,,,0.00,WUHU216HW,2013-01-11 22:18:00,
2013-01-11 15:23:00,50.4,20.8,29.82,WSW,248,9.8,10.3,31,0.00,,,0.00,WUHU216HW,2013-01-11 22:23:00,
2013-01-11 15:28:00,50.4,20.8,29.82,NW,315,4.9,10.1,31,0.00,,,0.00,WUHU216HW,2013-01-11 22:28:00,
2013-01-11 15:33:00,50.2,20.6,29.83,NW,315,4.7,10.5,31,0.00,,,0.00,WUHU216HW,2013-01-11 22:33:00,
2013-01-11 15:38:00,50.2,20.6,29.83,NW,315,4.0,10.5,31,0.00,,,0.00,WUHU216HW,2013-01-11 22:38:00,
2013-01-11 15:43:00,50.2,20.6,29.83,West,270,4.7,6.3,31,0.00,,,0.00,WUHU216HW,2013-01-11 22:43:00,
2013-01-11 15:48:00,50.2,20.6,29.83,WNW,293,9.6,9.6,31,0.00,,,0.00,WUHU216HW,2013-01-11 22:48:00,
2013-01-11 15:53:00,50.0,20.5,29.83,NNW,338,5.6,10.3,31,0.00,,,0.00,WUHU216HW,2013-01-11 22:53:00,
2013-01-11 15:58:00,49.9,20.4,29.83,NW,315,6.0,10.3,31,0.00,,,0.00,WUHU216HW,2013-01-11 22:58:00,
2013-01-11 16:03:00,49.9,20.4,29.83,West,270,4.7,7.8,31,0.00,,,0.00,WUHU216HW,2013-01-11 23:03:00,
2013-01-11 16:08:00,49.7,20.2,29.83,NNW,338,4.7,8.5,31,0.00,,,0.00,WUHU216HW,2013-01-11 23:08:00,
2013-01-11 16:13:00,49.5,19.4,29.83,NW,315,7.4,12.5,30,0.00,,,0.00,WUHU216HW,2013-01-11 23:13:00,
2013-01-11 16:18:00,49.5,20.1,29.83,West,270,5.1,12.5,31,0.00,,,0.00,WUHU216HW,2013-01-11 23:18:00,
2013-01-11 16:23:00,49.3,19.9,29.83,WNW,293,4.7,10.5,31,0.00,,,0.00,WUHU216HW,2013-01-11 23:23:00,
2013-01-11 16:28:00,49.1,19.7,29.83,West,270,10.3,11.0,31,0.00,,,0.00,WUHU216HW,2013-01-11 23:28:00,
2013-01-11 16:33:00,49.0,19.6,29.83,WNW,293,4.9,11.4,31,0.00,,,0.00,WUHU216HW,2013-01-11 23:33:00,
2013-01-11 16:38:00,48.8,19.4,29.82,WSW,248,7.6,11.4,31,0.00,,,0.00,WUHU216HW,2013-01-11 23:38:00,
2013-01-11 16:43:00,48.8,19.4,29.82,NW,315,7.6,10.5,31,0.00,,,0.00,WUHU216HW,2013-01-11 23:43:00,
2013-01-11 16:48:00,48.6,19.4,29.82,WNW,293,3.4,10.5,31,0.00,,,0.00,WUHU216HW,2013-01-11 23:48:00,
2013-01-11 16:53:00,48.6,19.4,29.82,WNW,293,8.3,11.4,31,0.00,,,0.00,WUHU216HW,2013-01-11 23:53:00,
2013-01-11 16:58:00,48.4,19.8,29.82,NW,315,2.9,12.1,32,0.00,,,0.00,WUHU216HW,2013-01-11 23:58:00,
2013-01-11 17:03:00,48.4,19.8,29.83,NW,315,3.8,12.1,32,0.00,,,0.00,WUHU216HW,2013-01-12 00:03:00,
2013-01-11 17:08:00,48.2,19.7,29.83,NW,315,2.0,4.7,32,0.00,,,0.00,WUHU216HW,2013-01-12 00:08:00,
2013-01-11 17:13:00,47.9,19.4,29.83,NW,315,4.3,4.3,32,0.00,,,0.00,WUHU216HW,2013-01-12 00:13:00,
2013-01-11 17:18:00,47.5,19.1,29.83,WNW,293,4.3,5.4,32,0.00,,,0.00,WUHU216HW,2013-01-12 00:18:00,
2013-01-11 17:23:00,47.2,18.7,29.83,NW,315,3.1,5.4,32,0.00,,,0.00,WUHU216HW,2013-01-12 00:23:00,
2013-01-11 17:28:00,46.8,18.4,29.83,West,270,2.9,4.5,32,0.00,,,0.00,WUHU216HW,2013-01-12 00:28:00,
2013-01-11 17:33:00,46.4,18.1,29.84,NNW,338,1.3,4.3,32,0.00,,,0.00,WUHU216HW,2013-01-12 00:33:00,
2013-01-11 17:38:00,46.1,17.7,29.84,NW,315,2.9,4.0,32,0.00,,,0.00,WUHU216HW,2013-01-12 00:38:00,
2013-01-11 17:43:00,45.9,18.3,29.84,NW,315,1.1,3.6,33,0.00,,,0.00,WUHU216HW,2013-01-12 00:43:00,
2013-01-11 17:48:00,45.5,17.9,29.84,NW,315,0.4,2.9,33,0.00,,,0.00,WUHU216HW,2013-01-12 00:48:00,
2013-01-11 17:53:00,45.4,17.7,29.84,NW,315,1.1,1.8,33,0.00,,,0.00,WUHU216HW,2013-01-12 00:53:00,
2013-01-11 17:58:00,45.0,17.5,29.84,NNE,23,1.1,2.7,33,0.00,,,0.00,WUHU216HW,2013-01-12 00:58:00,
2013-01-11 18:03:00,44.8,17.3,29.84,NNW,338,1.8,2.7,33,0.00,,,0.00,WUHU216HW,2013-01-12 01:03:00,
2013-01-11 18:08:00,44.5,16.9,29.84,NW,315,2.9,4.0,33,0.00,,,0.00,WUHU216HW,2013-01-12 01:08:00,
2013-01-11 18:13:00,44.3,16.8,29.84,NW,315,3.1,5.1,33,0.00,,,0.00,WUHU216HW,2013-01-12 01:13:00,
2013-01-11 18:18:00,44.1,16.7,29.85,NW,315,2.9,5.1,33,0.00,,,0.00,WUHU216HW,2013-01-12 01:18:00,
2013-01-11 18:23:00,43.9,16.5,29.85,West,270,3.4,6.0,33,0.00,,,0.00,WUHU216HW,2013-01-12 01:23:00,
2013-01-11 18:28:00,43.6,16.1,29.85,NW,315,3.1,9.6,33,0.00,,,0.00,WUHU216HW,2013-01-12 01:28:00,
2013-01-11 18:33:00,43.6,16.1,29.85,NW,315,1.1,9.6,33,0.00,,,0.00,WUHU216HW,2013-01-12 01:33:00,
2013-01-11 18:38:00,43.2,15.1,29.85,NNW,338,1.6,3.6,32,0.00,,,0.00,WUHU216HW,2013-01-12 01:38:00,
2013-01-11 18:43:00,42.8,14.9,29.85,West,270,1.8,2.9,32,0.00,,,0.00,WUHU216HW,2013-01-12 01:43:00,
2013-01-11 18:48:00,42.7,14.7,29.85,NW,315,2.2,3.8,32,0.00,,,0.00,WUHU216HW,2013-01-12 01:48:00,
2013-01-11 18:53:00,42.5,15.2,29.85,NW,315,1.1,3.8,33,0.00,,,0.00,WUHU216HW,2013-01-12 01:53:00,
2013-01-11 18:58:00,42.1,15.0,29.85,NW,315,1.6,2.7,33,0.00,,,0.00,WUHU216HW,2013-01-12 01:58:00,
2013-01-11 19:03:00,41.8,14.6,29.86,WNW,293,1.1,2.2,33,0.00,,,0.00,WUHU216HW,2013-01-12 02:03:00,
2013-01-11 19:08:00,41.6,14.5,29.85,NNW,338,1.3,2.0,33,0.00,,,0.00,WUHU216HW,2013-01-12 02:08:00,
2013-01-11 19:13:00,41.2,14.1,29.85,NW,315,2.2,2.7,33,0.00,,,0.00,WUHU216HW,2013-01-12 02:13:00,
2013-01-11 19:18:00,40.9,13.9,29.86,WNW,293,2.2,4.7,33,0.00,,,0.00,WUHU216HW,2013-01-12 02:18:00,
2013-01-11 19:23:00,40.7,13.7,29.86,WNW,293,2.9,4.7,33,0.00,,,0.00,WUHU216HW,2013-01-12 02:23:00,
2013-01-11 19:28:00,40.7,13.7,29.86,NNW,338,1.1,2.9,33,0.00,,,0.00,WUHU216HW,2013-01-12 02:28:00,
2013-01-11 19:33:00,40.5,13.5,29.86,WNW,293,1.6,2.9,33,0.00,,,0.00,WUHU216HW,2013-01-12 02:33:00,
2013-01-11 19:38:00,40.1,13.2,29.86,North,0,0.4,1.8,33,0.00,,,0.00,WUHU216HW,2013-01-12 02:38:00,
2013-01-11 19:43:00,40.1,13.2,29.86,North,0,0.0,1.8,33,0.00,,,0.00,WUHU216HW,2013-01-12 02:43:00,
2013-01-11 19:48:00,40.0,13.1,29.86,North,0,0.2,1.6,33,0.00,,,0.00,WUHU216HW,2013-01-12 02:48:00,
2013-01-11 19:53:00,39.6,12.7,29.86,NNW,338,0.0,1.1,33,0.00,,,0.00,WUHU216HW,2013-01-12 02:53:00,
2013-01-11 19:58:00,39.4,12.5,29.86,West,270,0.4,1.1,33,0.00,,,0.00,WUHU216HW,2013-01-12 02:58:00,
2013-01-11 20:03:00,39.1,12.9,29.86,SW,225,0.4,0.9,34,0.00,,,0.00,WUHU216HW,2013-01-12 03:03:00,
2013-01-11 20:08:00,38.7,13.2,29.86,WSW,248,0.9,1.1,35,0.00,,,0.00,WUHU216HW,2013-01-12 03:08:00,
2013-01-11 20:13:00,38.5,13.1,29.86,SSW,203,0.4,1.3,35,0.00,,,0.00,WUHU216HW,2013-01-12 03:13:00,
2013-01-11 20:18:00,38.2,12.7,29.86,WSW,248,1.1,1.3,35,0.00,,,0.00,WUHU216HW,2013-01-12 03:18:00,
2013-01-11 20:23:00,37.8,12.4,29.86,WSW,248,1.3,1.6,35,0.00,,,0.00,WUHU216HW,2013-01-12 03:23:00,
2013-01-11 20:28:00,37.4,12.7,29.86,SW,225,0.7,1.6,36,0.00,,,0.00,WUHU216HW,2013-01-12 03:28:00,
2013-01-11 20:33:00,37.1,12.4,29.86,SW,225,1.3,1.3,36,0.00,,,0.00,WUHU216HW,2013-01-12 03:33:00,
2013-01-11 20:38:00,36.7,12.1,29.85,WSW,248,0.4,1.6,36,0.00,,,0.00,WUHU216HW,2013-01-12 03:38:00,
2013-01-11 20:43:00,36.4,11.7,29.85,WSW,248,1.6,1.8,36,0.00,,,0.00,WUHU216HW,2013-01-12 03:43:00,
2013-01-11 20:48:00,36.2,12.3,29.85,SW,225,0.0,1.8,37,0.00,,,0.00,WUHU216HW,2013-01-12 03:48:00,
2013-01-11 20:53:00,36.0,12.1,29.85,SSE,158,0.2,1.6,37,0.00,,,0.00,WUHU216HW,2013-01-12 03:53:00,
2013-01-11 20:58:00,35.8,11.9,29.86,SW,225,0.2,1.1,37,0.00,,,0.00,WUHU216HW,2013-01-12 03:58:00,
2013-01-11 21:03:00,35.6,11.7,29.86,WSW,248,0.0,1.1,37,0.00,,,0.00,WUHU216HW,2013-01-12 04:03:00,
2013-01-11 21:08:00,35.5,11.6,29.86,SW,225,0.2,1.1,37,0.00,,,0.00,WUHU216HW,2013-01-12 04:08:00,
2013-01-11 21:13:00,35.3,11.4,29.86,WSW,248,0.0,1.6,37,0.00,,,0.00,WUHU216HW,2013-01-12 04:13:00,
2013-01-11 21:18:00,35.1,11.9,29.86,SSW,203,0.4,1.6,38,0.00,,,0.00,WUHU216HW,2013-01-12 04:18:00,
2013-01-11 21:23:00,34.9,11.8,29.86,SW,225,0.9,1.1,38,0.00,,,0.00,WUHU216HW,2013-01-12 04:23:00,
2013-01-11 21:28:00,34.7,11.6,29.85,SW,225,1.1,1.1,38,0.00,,,0.00,WUHU216HW,2013-01-12 04:28:00,
2013-01-11 21:33:00,34.6,11.4,29.85,SW,225,1.6,1.6,38,0.00,,,0.00,WUHU216HW,2013-01-12 04:33:00,
2013-01-11 21:38:00,34.2,11.2,29.85,SW,225,1.3,1.6,38,0.00,,,0.00,WUHU216HW,2013-01-12 04:38:00,
2013-01-11 21:43:00,34.0,11.0,29.85,SW,225,1.8,1.8,38,0.00,,,0.00,WUHU216HW,2013-01-12 04:43:00,
2013-01-11 21:48:00,33.8,11.4,29.85,SW,225,0.9,1.8,39,0.00,,,0.00,WUHU216HW,2013-01-12 04:48:00,
2013-01-11 21:53:00,33.7,11.3,29.85,SSW,203,0.7,1.8,39,0.00,,,0.00,WUHU216HW,2013-01-12 04:53:00,
2013-01-11 21:58:00,33.5,11.1,29.85,SSW,203,1.1,1.8,39,0.00,,,0.00,WUHU216HW,2013-01-12 04:58:00,
2013-01-11 22:00:00,33.5,11.1,29.85,South,180,0.7,1.8,39,0.00,,,0.00,WUHU216HW,2013-01-12 05:00:00,
2013-01-11 22:01:00,33.5,11.1,29.85,South,180,1.1,1.1,39,0.00,,,0.00,WUHU216HW,2013-01-12 05:01:00,
2013-01-11 22:06:00,33.3,11.0,29.86,South,180,0.4,1.1,39,0.00,,,0.00,WUHU216HW,2013-01-12 05:06:00,
2013-01-11 22:11:00,33.3,11.0,29.85,SSW,203,1.1,1.6,39,0.00,,,0.00,WUHU216HW,2013-01-12 05:11:00,
2013-01-11 22:16:00,33.1,10.8,29.86,SW,225,2.5,2.5,39,0.00,,,0.00,WUHU216HW,2013-01-12 05:16:00,
2013-01-11 22:21:00,33.1,10.8,29.86,SW,225,2.9,3.1,39,0.00,,,0.00,WUHU216HW,2013-01-12 05:21:00,
2013-01-11 22:26:00,33.5,11.1,29.86,SW,225,2.5,3.4,39,0.00,,,0.00,WUHU216HW,2013-01-12 05:26:00,
2013-01-11 22:31:00,33.7,11.3,29.86,SW,225,1.8,3.6,39,0.00,,,0.00,WUHU216HW,2013-01-12 05:31:00,
2013-01-11 22:36:00,33.8,11.4,29.86,SW,225,3.4,4.0,39,0.00,,,0.00,WUHU216HW,2013-01-12 05:36:00,
2013-01-11 22:41:00,33.8,11.4,29.86,SW,225,2.2,4.0,39,0.00,,,0.00,WUHU216HW,2013-01-12 05:41:00,
2013-01-11 22:46:00,33.8,11.4,29.86,SW,225,2.5,3.8,39,0.00,,,0.00,WUHU216HW,2013-01-12 05:46:00,
2013-01-11 22:51:00,33.7,11.3,29.86,SW,225,2.5,3.6,39,0.00,,,0.00,WUHU216HW,2013-01-12 05:51:00,
2013-01-11 22:56:00,33.7,11.3,29.86,WSW,248,0.9,3.1,39,0.00,,,0.00,WUHU216HW,2013-01-12 05:56:00,
2013-01-11 23:01:00,33.5,11.1,29.86,SW,225,1.8,2.9,39,0.00,,,0.00,WUHU216HW,2013-01-12 06:01:00,
2013-01-11 23:06:00,33.7,11.3,29.87,WSW,248,1.3,2.7,39,0.00,,,0.00,WUHU216HW,2013-01-12 06:06:00,
2013-01-11 23:11:00,33.5,11.1,29.86,WSW,248,1.1,2.7,39,0.00,,,0.00,WUHU216HW,2013-01-12 06:11:00,
2013-01-11 23:16:00,33.5,11.1,29.86,SW,225,1.8,2.2,39,0.00,,,0.00,WUHU216HW,2013-01-12 06:16:00,
2013-01-11 23:21:00,33.3,11.0,29.86,WSW,248,3.1,3.4,39,0.00,,,0.00,WUHU216HW,2013-01-12 06:21:00,
2013-01-11 23:26:00,33.3,11.0,29.86,SW,225,1.8,3.8,39,0.00,,,0.00,WUHU216HW,2013-01-12 06:26:00,
2013-01-11 23:31:00,33.1,10.8,29.86,SW,225,2.7,3.8,39,0.00,,,0.00,WUHU216HW,2013-01-12 06:31:00,
2013-01-11 23:36:00,33.1,10.8,29.86,SW,225,1.3,2.7,39,0.00,,,0.00,WUHU216HW,2013-01-12 06:36:00,
2013-01-11 23:41:00,32.9,10.6,29.86,SE,135,0.2,2.7,39,0.00,,,0.00,WUHU216HW,2013-01-12 06:41:00,
2013-01-11 23:46:00,32.8,10.4,29.86,East,90,0.9,2.2,39,0.00,,,0.00,WUHU216HW,2013-01-12 06:46:00,
2013-01-11 23:51:00,32.6,10.9,29.86,ESE,113,1.1,2.5,40,0.00,,,0.00,WUHU216HW,2013-01-12 06:51:00,
2013-01-11 23:56:00,32.0,10.4,29.86,East,90,0.0,2.5,40,0.00,,,0.00,WUHU216HW,2013-01-12 06:56:00,